Location: *
(48.8489°N, 2.3218°E)
Time: 00:57:07
(UTC+00:00)

Cosmos 1867 - Pass Details

Date: 23 August 2019
Orbit: 775 x 800 km, 65.0° (Epoch: 17 October)

Event Time Altitude Azimuth Distance (km) Brightness Sun altitude
Rises 22:44:34 0° 317° (NW) 3,318 7.8 -28.0°
Reaches altitude 10° 22:47:07 10° 310° (NW) 2,383 6.7 -28.1°
Enters shadow 22:51:31 38° 261° (W) 1,201 4.5 -28.3°
